Temp
8 8 7 6 6 6 5 5 5 3 3 3 3 3 2 2 2 1 1 1 0 -0 -0 -0 -1 -1 -1 -1 -2 -2 -3 -4 -4 -5 -5 -5 -5 -6
8 7 6 6 6 6 4 4 3 3 2 2 2 2 2 2 1 1 1 0 -0 -0 -0 -1 -1 -1 -1 -2 -2 -3 -3 -4 -5 -5 -6 -6 -6 -6
7 8 6 6 6 5 4 3 3 2 2 2 2 1 1 1 1 0 0 -0 -0 -1 -1 -1 -2 -2 -2 -2 -3 -3 -3 -4 -5 -5 -6 -6 -6 -6
7 7 6 6 5 4 3 3 2 2 2 1 1 1 1 0 1 0 0 -1 -1 -1 -2 -2 -2 -3 -3 -3 -4 -4 -4 -4 -5 -5 -5 -6 -6 -7
7 6 5 4 4 3 2 2 2 2 1 1 1 1 0 0 0 -0 -1 -1 -2 -2 -3 -3 -3 -3 -3 -4 -4 -4 -4 -5 -5 -6 -6 -6 -6 -7
6 6 5 4 3 2 2 2 2 1 1 1 0 0 -0 -0 -1 -1 -2 -2 -2 -3 -3 -4 -4 -4 -4 -4 -4 -4 -5 -5 -6 -6 -6 -6 -7 -7
5 4 3 3 2 1 2 2 1 1 1 0 -0 -1 -1 -1 -2 -2 -3 -3 -3 -3 -3 -4 -5 -4 -5 -4 -4 -5 -6 -5 -6 -6 -6 -6 -7 -7
4 3 2 1 1 2 1 1 1 0 0 -0 -1 -2 -2 -2 -3 -3 -4 -4 -5 -4 -4 -5 -6 -6 -5 -5 -5 -5 -6 -6 -6 -7 -7 -7 -7 -8
3 2 1 0 1 0 1 0 -0 -1 -1 -2 -2 -2 -3 -3 -4 -4 -5 -6 -6 -6 -8 -7 -6 -6 -6 -6 -6 -6 -7 -7 -7 -7 -7 -8 -8 -8
1 -0 -1 -1 -1 -1 -1 -1 -1 -1 -2 -3 -3 -3 -4 -5 -6 -6 -7 -7 -7 -7 -8 -8 -7 -6 -6 -6 -7 -7 -7 -7 -7 -7 -8 -8 -8 -8
-1 -2 -1 -2 -2 -1 -1 -2 -2 -2 -3 -3 -3 -4 -4 -6 -6 -7 -7 -8 -8 -6 -8 -8 -7 -7 -6 -6 -7 -7 -7 -7 -8 -8 -8 -8 -9 -9
-2 -2 -2 -2 -2 -2 -3 -3 -3 -4 -4 -4 -4 -5 -5 -6 -7 -8 -8 -8 -8 -8 -8 -8 -8 -8 -8 -6 -6 -6 -6 -7 -8 -8 -9 -9 -9 -9
-3 -3 -3 -3 -4 -4 -4 -4 -5 -5 -6 -7 -7 -7 -7 -7 -8 -9 -9 -8 -8 -8 -8 -8 -8 -8 -8 -7 -7 -7 -7 -8 -9 -9 -9 -9 -9 -10
-4 -4 -4 -5 -5 -4 -5 -6 -7 -8 -8 -8 -8 -8 -8 -8 -8 -9 -9 -9 -9 -9 -8 -9 -8 -8 -8 -8 -8 -8 -8 -8 -9 -9 -9 -10 -10 -10
-5 -5 -5 -5 -5 -6 -7 -8 -9 -9 -9 -9 -10 -10 -10 -10 -10 -9 -9 -9 -9 -9 -8 -8 -8 -8 -8 -8 -8 -8 -8 -8 -9 -9 -9 -10 -10 -9
-7 -8 -8 -7 -8 -9 -9 -10 -10 -11 -11 -11 -12 -11 -11 -11 -11 -11 -10 -10 -9 -8 -8 -8 -8 -8 -8 -8 -8 -8 -8 -9 -9 -9 -9 -9 -9 -10
-9 -9 -9 -10 -10 -10 -11 -12 -12 -12 -13 -13 -13 -13 -13 -13 -12 -12 -12 -11 -11 -10 -9 -9 -8 -8 -7 -8 -8 -8 -8 -9 -9 -9 -9 -9 -9 -9
-10 -11 -11 -12 -12 -13 -13 -14 -14 -14 -15 -15 -15 -15 -15 -14 -14 -13 -13 -13 -12 -11 -10 -9 -9 -8 -8 -8 -8 -8 -8 -9 -9 -9 -9 -10 -9 -9
-12 -12 -13 -13 -14 -14 -15 -15 -16 -16 -17 -17 -17 -17 -17 -16 -15 -15 -15 -14 -13 -12 -11 -11 -9 -8 -8 -8 -8 -8 -9 -9 -9 -9 -9 -10 -9 -9
-13 -14 -14 -15 -15 -16 -16 -17 -17 -18 -18 -18 -18 -18 -18 -18 -17 -17 -16 -16 -15 -13 -12 -11 -10 -9 -8 -8 -8 -8 -9 -9 -9 -9 -9 -10 -9 -9
-15 -16 -16 -16 -17 -17 -18 -18 -19 -19 -19 -19 -20 -19 -19 -19 -18 -18 -17 -17 -16 -15 -13 -12 -11 -11 -9 -9 -9 -9 -9 -9 -9 -9 -10 -10 -9 -9
-17 -17 -18 -18 -18 -19 -19 -19 -20 -20 -20 -20 -20 -20 -20 -20 -19 -19 -18 -17 -16 -16 -14 -13 -12 -11 -10 -9 -8 -9 -9 -10 -10 -10 -10 -10 -10 -9
-19 -19 -20 -20 -20 -20 -21 -21 -21 -21 -21 -21 -21 -21 -20 -20 -20 -19 -19 -18 -18 -16 -15 -14 -13 -12 -10 -9 -9 -10 -10 -10 -10 -10 -10 -9 -9 -9
Height
1515 1516 1519 1521 1523 1524 1525 1525 1525 1524 1523 1526 1527 1529 1529 1527 1526 1524 1523 1523 1522 1521 1520 1519 1519 1518 1516 1515 1513 1512 1510 1509 1508 1506 1503 1501 1499 1497
1509 1511 1513 1515 1515 1517 1518 1519 1518 1518 1517 1520 1521 1521 1520 1520 1519 1518 1517 1515 1514 1513 1512 1511 1510 1509 1508 1506 1505 1504 1503 1500 1499 1499 1497 1495 1493 1491
1501 1505 1507 1509 1509 1509 1511 1512 1513 1512 1511 1513 1514 1514 1513 1512 1511 1511 1510 1508 1507 1505 1504 1503 1502 1500 1499 1498 1496 1495 1493 1492 1491 1490 1490 1489 1487 1486
1495 1496 1498 1500 1502 1504 1505 1506 1508 1508 1507 1505 1507 1506 1506 1505 1502 1501 1501 1500 1499 1497 1496 1494 1492 1491 1489 1488 1486 1485 1483 1482 1482 1482 1482 1481 1480 1479
1486 1488 1491 1493 1495 1496 1498 1500 1501 1502 1502 1499 1498 1499 1497 1497 1495 1492 1491 1490 1489 1488 1486 1485 1483 1481 1480 1478 1476 1475 1474 1473 1473 1473 1475 1474 1472 1471
1480 1481 1484 1485 1488 1489 1492 1494 1495 1496 1496 1494 1492 1491 1490 1489 1487 1483 1480 1479 1477 1477 1475 1474 1472 1471 1469 1467 1466 1464 1464 1463 1463 1464 1466 1466 1465 1464
1474 1476 1478 1478 1480 1485 1487 1488 1488 1488 1488 1486 1485 1483 1481 1480 1478 1474 1470 1467 1464 1465 1462 1461 1461 1459 1458 1458 1456 1455 1455 1456 1456 1457 1457 1458 1457 1456
1470 1471 1472 1474 1477 1479 1481 1481 1481 1481 1480 1478 1476 1474 1471 1470 1469 1465 1462 1459 1454 1455 1451 1448 1451 1449 1449 1449 1448 1448 1449 1448 1449 1449 1449 1449 1448 1448
1465 1467 1467 1471 1471 1473 1473 1474 1474 1474 1472 1470 1467 1466 1463 1463 1460 1458 1456 1453 1449 1447 1445 1438 1441 1438 1440 1441 1441 1442 1442 1442 1441 1441 1440 1440 1440 1440
1460 1462 1465 1466 1466 1467 1467 1466 1466 1466 1464 1462 1459 1458 1456 1456 1454 1451 1448 1444 1440 1439 1439 1433 1432 1430 1432 1432 1433 1434 1435 1434 1433 1433 1433 1433 1433 1433
1456 1458 1460 1461 1462 1462 1461 1459 1458 1457 1456 1455 1453 1451 1450 1448 1447 1444 1441 1439 1433 1430 1430 1428 1424 1422 1422 1423 1425 1426 1426 1426 1426 1427 1427 1426 1426 1425
1452 1453 1456 1457 1457 1455 1454 1453 1450 1449 1447 1446 1445 1444 1442 1441 1440 1438 1435 1432 1429 1423 1421 1421 1419 1419 1416 1415 1417 1419 1419 1420 1420 1420 1420 1419 1419 1417
1450 1450 1450 1450 1449 1448 1446 1444 1442 1441 1440 1438 1437 1435 1433 1431 1430 1428 1427 1425 1422 1417 1417 1416 1413 1412 1412 1410 1411 1412 1413 1414 1414 1414 1413 1412 1410 1409
1447 1446 1445 1443 1441 1441 1440 1438 1436 1436 1434 1433 1430 1427 1425 1423 1421 1420 1418 1415 1414 1410 1409 1409 1406 1405 1405 1403 1403 1405 1407 1408 1408 1407 1407 1405 1404 1403
1442 1440 1439 1438 1437 1435 1433 1433 1432 1430 1429 1427 1424 1421 1418 1415 1412 1410 1408 1406 1403 1400 1399 1398 1397 1396 1397 1396 1397 1398 1400 1401 1402 1401 1400 1400 1398 1397
1435 1433 1433 1432 1430 1429 1428 1427 1426 1425 1423 1421 1418 1415 1412 1409 1406 1403 1400 1397 1393 1391 1391 1389 1389 1388 1386 1387 1390 1391 1393 1394 1395 1395 1395 1394 1393 1392
1429 1428 1427 1427 1426 1425 1423 1422 1421 1419 1417 1414 1412 1408 1405 1402 1399 1396 1394 1390 1387 1383 1381 1381 1379 1380 1379 1381 1382 1384 1386 1387 1388 1389 1389 1388 1388 1387
1423 1423 1422 1421 1421 1419 1417 1416 1415 1413 1410 1408 1405 1402 1398 1395 1392 1390 1387 1384 1380 1377 1374 1373 1371 1372 1372 1374 1375 1377 1379 1381 1383 1383 1383 1383 1382 1381
1420 1419 1418 1417 1416 1414 1412 1411 1409 1407 1405 1402 1400 1396 1393 1390 1387 1383 1381 1378 1374 1371 1368 1365 1364 1362 1363 1365 1369 1372 1373 1375 1377 1377 1378 1378 1377 1376
1416 1415 1414 1412 1411 1410 1408 1406 1404 1402 1399 1396 1393 1390 1387 1384 1381 1378 1375 1372 1368 1365 1361 1360 1357 1358 1358 1360 1363 1366 1367 1370 1371 1372 1373 1373 1372 1372
1413 1412 1410 1408 1406 1405 1402 1400 1398 1395 1393 1390 1387 1385 1383 1379 1376 1373 1370 1367 1363 1360 1355 1353 1352 1350 1351 1354 1358 1360 1363 1365 1366 1367 1368 1368 1368 1369
1408 1407 1405 1403 1401 1399 1396 1394 1391 1389 1387 1384 1381 1379 1377 1374 1371 1368 1365 1361 1358 1355 1351 1348 1346 1345 1346 1349 1352 1356 1359 1361 1361 1362 1363 1365 1365 1366
1403 1401 1399 1397 1395 1392 1390 1388 1385 1383 1380 1378 1376 1374 1372 1369 1367 1364 1361 1358 1354 1350 1348 1344 1342 1340 1341 1345 1349 1352 1355 1357 1358 1359 1360 1361 1362 1363
Wind_Speed
41 33 38 33 27 31 32 27 26 23 25 26 23 22 20 20 21 21 22 23 24 25 23 25 25 28 30 32 31 35 33 30 30 26 24 25 29 24
41 34 35 32 27 29 29 30 26 24 25 24 23 22 22 23 24 25 26 27 27 28 28 28 29 33 34 35 35 36 36 32 29 27 24 24 23 22
44 34 32 33 29 28 27 25 22 20 26 26 26 25 26 28 28 28 30 31 30 28 30 31 31 32 32 34 37 37 36 33 32 29 26 24 23 23
40 37 34 33 29 26 23 23 22 22 27 30 27 28 29 29 31 32 33 33 33 32 33 33 31 33 33 36 35 36 35 35 34 29 29 27 27 24
37 36 34 28 27 24 23 23 23 25 27 31 32 33 33 33 34 35 35 35 35 34 33 32 32 34 36 37 35 32 30 32 35 27 26 30 30 29
38 33 28 26 23 21 23 24 25 27 30 32 33 34 34 35 36 37 38 38 39 35 35 33 36 36 39 34 33 31 32 36 29 26 30 29 29 30
34 29 23 22 22 24 25 25 27 28 30 33 34 35 36 36 36 37 40 42 42 37 36 34 33 33 30 31 30 29 28 24 22 27 28 28 31 29
23 22 21 20 22 24 25 26 29 30 31 32 34 35 37 37 38 36 36 36 39 35 33 33 24 29 26 29 24 22 22 23 25 28 31 35 28 25
22 20 19 22 23 25 26 27 28 28 31 33 35 35 36 34 34 34 31 32 35 33 29 36 31 29 25 26 22 25 23 26 30 30 27 23 24 25
16 19 21 23 25 25 26 26 28 29 29 29 30 32 32 30 28 28 30 32 33 32 26 32 31 31 27 26 22 27 26 27 24 22 23 23 23 24
18 21 25 23 23 25 26 27 27 26 26 27 28 29 29 26 26 27 28 29 34 35 28 27 30 28 29 27 22 24 24 22 21 22 23 24 25 25
19 18 18 20 22 23 23 24 25 26 26 27 27 28 28 27 24 21 25 26 27 31 26 19 24 24 26 24 23 20 20 16 15 19 22 25 28 31
15 15 17 18 18 19 21 23 25 27 26 27 28 29 28 25 23 21 20 24 28 31 31 28 31 31 29 26 20 19 16 14 14 20 25 27 26 24
15 15 16 18 18 23 23 23 23 23 26 28 28 28 27 27 24 23 23 23 27 32 31 30 33 33 30 31 27 20 18 16 16 17 17 17 14 16
16 18 21 23 26 25 21 20 22 24 26 27 27 28 27 27 27 26 25 24 25 27 27 26 30 31 31 34 27 21 18 16 16 17 14 15 18 18
20 21 24 23 20 19 18 21 22 23 24 25 27 28 27 27 25 24 26 26 27 28 24 25 26 25 33 32 27 21 19 19 18 15 15 16 15 13
18 18 18 17 16 17 18 20 22 23 24 24 24 25 26 26 25 24 23 24 24 26 27 24 27 25 21 22 21 20 18 18 16 15 16 15 14 13
18 18 17 17 17 18 20 21 21 21 22 23 23 25 25 26 26 24 23 23 24 24 25 19 24 28 20 22 22 21 20 17 15 14 15 16 15 9
18 19 19 18 18 17 18 19 20 21 22 23 24 25 25 25 24 24 23 23 23 24 23 19 16 28 24 25 20 18 18 16 14 13 13 14 15 11
18 16 15 15 16 18 19 20 21 23 23 23 23 23 22 22 24 23 23 23 23 23 23 20 15 19 23 23 20 16 14 14 14 14 14 12 13 12
15 15 17 18 20 21 22 23 23 23 23 23 22 21 19 20 22 22 21 21 22 21 23 22 17 12 15 20 19 17 14 12 12 14 12 10 8 7
18 19 20 20 21 23 23 23 23 24 23 21 20 18 19 19 20 21 21 22 21 21 21 21 19 14 13 19 19 15 11 10 11 10 11 12 8 4
21 21 22 23 23 24 23 23 24 24 22 20 19 19 20 19 18 20 19 20 20 21 19 20 18 10 15 20 17 14 11 10 10 14 14 13 11 9
Wind_Direction
242 254 249 240 249 262 254 244 259 259 269 276 278 278 277 282 286 289 291 292 291 293 289 289 289 288 289 283 275 279 278 293 285 279 286 298 308 304
248 254 250 241 260 263 242 253 257 263 269 271 280 283 283 286 290 292 293 293 292 293 293 288 286 286 283 276 276 286 292 288 277 272 277 288 295 300
246 250 252 243 260 253 248 254 251 261 268 275 277 282 285 288 290 292 293 293 292 291 293 288 288 283 285 283 283 287 288 280 279 268 270 278 283 291
248 243 243 246 248 249 248 247 255 265 268 274 277 280 285 288 289 291 292 294 294 293 292 291 288 288 287 287 278 281 276 273 270 267 268 277 279 282
246 240 239 239 246 239 246 249 260 263 265 271 279 284 288 291 291 292 293 292 291 292 289 285 283 285 287 283 278 278 273 271 265 259 262 272 273 280
239 235 231 237 237 244 244 254 259 263 269 275 281 285 287 289 290 293 293 292 292 291 286 280 281 279 285 278 280 275 272 273 262 261 267 268 270 278
227 228 231 231 243 246 251 257 263 268 273 278 281 284 286 290 292 295 295 296 295 294 294 288 277 281 277 275 278 272 270 264 265 267 268 268 276 276
228 221 232 243 240 245 252 264 268 272 276 279 282 285 289 293 294 295 295 297 299 302 303 298 290 275 277 274 276 257 262 268 267 264 268 276 266 267
224 233 236 236 242 252 259 266 271 275 279 282 286 289 292 294 294 294 294 293 290 294 293 294 297 288 277 273 263 253 264 266 272 273 269 260 261 271
219 225 232 243 252 259 266 271 275 278 280 283 286 289 289 291 290 291 291 291 291 290 287 285 295 285 286 271 258 258 264 274 270 263 257 259 267 276
231 228 246 259 264 272 277 281 282 284 284 285 286 289 292 292 293 290 290 288 289 291 288 284 294 290 282 274 254 257 268 268 263 258 260 262 267 270
238 255 257 266 275 280 285 287 289 290 293 292 291 292 294 294 291 288 285 289 292 292 298 286 293 296 282 264 258 254 261 257 260 256 257 261 267 275
253 260 271 277 280 285 290 296 295 295 296 299 301 301 300 297 292 287 279 283 287 284 287 280 285 284 276 264 257 254 251 254 261 259 263 268 273 270
271 275 280 286 295 294 291 290 290 291 297 302 304 303 302 299 296 286 282 282 273 278 278 271 273 273 275 255 243 251 255 258 268 270 267 271 273 271
291 298 301 304 302 300 295 289 292 297 300 302 303 304 303 304 302 297 289 282 287 280 271 269 269 269 263 261 249 254 254 263 265 271 261 264 280 282
294 298 298 294 294 295 294 293 295 297 301 303 305 303 303 303 302 302 296 295 292 284 288 271 268 270 260 257 247 253 261 261 268 262 265 267 278 279
303 299 300 300 293 290 292 296 300 302 302 305 305 305 306 306 305 304 303 300 300 298 287 288 269 266 254 255 245 250 260 264 265 257 262 268 271 277
302 305 304 301 297 295 295 298 300 303 305 307 308 309 309 308 305 304 304 303 299 297 294 302 274 255 233 238 242 248 255 259 261 248 257 267 285 299
311 314 311 302 297 297 297 299 303 305 307 307 307 307 309 307 305 306 308 308 301 299 298 292 277 238 224 234 240 240 257 255 244 249 254 268 281 294
317 308 289 288 292 297 299 302 304 305 304 304 305 305 304 302 304 308 309 309 309 303 298 298 279 258 233 241 239 253 251 241 238 247 263 277 273 280
310 298 293 294 298 300 303 305 304 305 306 306 305 305 303 302 306 311 310 309 309 306 302 297 287 250 248 239 234 235 234 236 240 255 255 247 272 238
306 304 300 298 300 302 303 302 303 305 305 302 302 299 302 306 309 311 313 314 312 309 303 300 298 272 231 230 226 231 218 229 246 242 244 241 244 224
308 306 303 302 301 301 301 301 302 305 305 302 296 298 305 305 308 313 315 315 314 311 307 305 303 282 228 225 222 213 218 222 229 237 253 250 248 237